EW9087 Weather Reports


Display with metric or nautical units.
time (UTC)temp
F
wind
direction
speed
MPH
gust
MPH
rain 1hr
in
rain 24hr
in
rain mn
in
humidity
%
barometer
mb
20260507044529 45 262 2.0 6.0 0.00 0.00 0.00 69 985.2
20260507043027 45 258 3.0 6.0 0.00 0.00 0.00 70 985.1
20260507041524 46 269 3.0 7.0 0.00 0.00 0.00 67 985.0
20260507040021 47 276 3.0 6.0 0.00 0.00 0.00 67 985.1
20260507034520 46 263 2.0 7.0 0.00 0.00 0.00 71 985.0
20260507033022 46 258 1.0 3.0 0.00 0.00 0.00 71 984.9
20260507031518 47 258 3.0 6.0 0.00 0.00 0.00 69 985.0
20260507030018 47 256 2.0 3.0 0.00 0.00 0.00 70 984.8
20260507024519 48 256 1.0 3.0 0.00 0.00 0.00 68 984.8
20260507023016 49 256 1.0 4.0 0.00 0.00 0.00 65 984.8
20260507021518 50 256 1.0 4.0 0.00 0.00 0.00 64 984.7
20260507020015 50 255 2.0 6.0 0.00 0.00 0.00 62 984.7
20260507014519 51 256 3.0 5.0 0.00 0.00 0.00 62 984.6
20260507013013 51 252 2.0 4.0 0.00 0.00 0.00 62 984.5
20260507011512 52 360 2.0 3.0 0.00 0.00 0.00 61 984.4
20260507010012 52 360 2.0 5.0 0.00 0.00 0.00 62 984.3
20260507004515 53 360 3.0 8.0 0.00 0.01 0.00 55 984.2
20260507003010 54 250 2.0 7.0 0.00 0.01 0.00 53 983.8
20260507001512 54 277 4.0 8.0 0.00 0.01 0.00 52 983.9
20260507000010 54 282 5.0 9.0 0.00 0.01 0.00 50 983.8
20260506234511 55 247 4.0 11.0 0.00 0.05 0.00 50 983.9
20260506233008 55 252 6.0 10.0 0.00 0.05 0.00 52 984.0
20260506231508 55 252 8.0 11.0 0.00 0.05 0.00 49 984.1
20260506230008 56 280 5.0 10.0 0.00 0.05 0.00 46 983.8
20260506224508 56 269 7.0 12.0 0.00 0.06 0.00 47 984.1
20260506223007 55 277 3.0 10.0 0.00 0.06 0.00 47 983.9
20260506221506 56 263 7.0 13.0 0.00 0.06 0.00 48 983.8
20260506220015 56 265 7.0 11.0 0.00 0.06 0.00 47 983.8
20260506214506 57 271 7.0 13.0 0.00 0.11 0.00 46 983.7
20260506213005 56 296 4.0 9.0 0.00 0.11 0.00 47 983.7
20260506211508 56 254 5.0 14.0 0.00 0.11 0.00 46 983.7
20260506210009 56 259 4.0 15.0 0.00 0.11 0.00 51 983.8
20260506204505 56 255 9.0 15.0 0.00 0.12 0.00 46 984.0
20260506203004 57 267 5.0 9.0 0.00 0.12 0.00 47 983.8
20260506201503 57 300 7.0 16.0 0.00 0.12 0.00 48 983.8
20260506200003 57 277 6.0 13.0 0.00 0.12 0.00 45 984.1
20260506194501 56 273 6.0 10.0 0.00 0.12 0.00 46 984.1
20260506193106 56 271 4.0 13.0 0.00 0.12 0.00 45 984.1
20260506191600 56 290 6.0 12.0 0.00 0.12 0.00 49 984.3
20260506184557 56 255 7.0 12.0 0.00 0.13 0.00 48 984.4
20260506183055 56 300 5.0 11.0 0.00 0.13 0.00 48 984.4
20260506181553 54 252 5.0 11.0 0.00 0.13 0.00 49 984.5
20260506174554 55 276 2.0 6.0 0.00 0.13 0.00 49 984.4
20260506173056 55 300 3.0 10.0 0.00 0.13 0.00 55 984.3
20260506171556 54 74 2.0 8.0 0.00 0.13 0.00 49 984.3
20260506164548 54 280 2.0 5.0 0.00 0.13 0.00 53 984.4
20260506163105 54 301 5.0 9.0 0.00 0.13 0.00 53 984.3
20260506161546 54 284 4.0 9.0 0.00 0.13 0.00 49 984.4
20260506160045 54 271 6.0 10.0 0.00 0.13 0.00 49 984.3
20260506154605 55 32 2.0 9.0 0.00 0.13 0.00 50 984.2
20260506153050 54 302 2.0 10.0 0.00 0.13 0.00 48 984.6
20260506151539 53 326 2.0 8.0 0.00 0.13 0.00 49 984.3
20260506150038 54 302 2.0 6.0 0.00 0.13 0.00 49 984.1
20260506144534 53 315 3.0 9.0 0.00 0.13 0.00 48 984.0
20260506143040 53 346 2.0 7.0 0.00 0.13 0.00 52 983.8
20260506141529 51 32 3.0 10.0 0.00 0.13 0.00 52 983.8
20260506140026 52 21 1.0 9.0 0.00 0.13 0.00 54 983.7
20260506134524 52 46 2.0 6.0 0.00 0.13 0.00 55 983.7
20260506133020 51 337 1.0 9.0 0.00 0.13 0.00 58 983.4
20260506131516 50 360 1.0 8.0 0.00 0.13 0.00 61 983.3
20260506130013 49 360 0.0 6.0 0.00 0.13 0.00 61 983.1
20260506124509 48 360 2.0 6.0 0.00 0.13 0.00 65 982.8
20260506123006 47 360 2.0 6.0 0.00 0.13 0.00 67 982.7
20260506121504 47 360 1.0 5.0 0.00 0.13 0.00 70 982.7
20260506114606 45 360 0.0 2.0 0.00 0.13 0.00 81 982.3
20260506113154 44 360 0.0 1.0 0.00 0.13 0.00 85 982.1
20260506111548 43 41 0.0 3.0 0.00 0.13 0.00 88 981.8
20260506110054 43 42 1.0 4.0 0.00 0.13 0.00 90 981.5
20260506104542 44 242 0.0 0.0 0.00 0.13 0.00 90 981.3
20260506103038 45 242 0.0 1.0 0.00 0.13 0.00 90 981.2
20260506101538 46 240 0.0 3.0 0.00 0.13 0.00 91 981.1
20260506100039 46 234 1.0 2.0 0.00 0.13 0.00 90 980.6
20260506094548 46 234 1.0 4.0 0.00 0.13 0.00 90 980.7
20260506093035 45 234 1.0 4.0 0.00 0.13 0.00 90 980.7
20260506091534 45 232 1.0 3.0 0.00 0.13 0.00 90 980.8
20260506090035 45 232 1.0 4.0 0.00 0.13 0.00 91 980.7
20260506084534 46 232 2.0 3.0 0.00 0.13 0.00 91 980.5
20260506083033 45 232 2.0 3.0 0.00 0.13 0.00 91 980.4
20260506081532 46 232 1.0 3.0 0.00 0.13 0.00 91 980.4
20260506073030 45 230 0.0 2.0 0.00 0.13 0.00 91 979.9
20260506071532 45 230 1.0 3.0 0.00 0.13 0.00 91 980.3
20260506061532 45 228 1.0 3.0 0.00 0.17 0.00 90 980.3